Location: ČR
(50.0000°N, 15.0000°E)
Time: 14:37:38
(UTC+00:00)

Explorer 7 - Pass Details

Date: 29 October 2021
Orbit: 483 x 675 km, 50.3° (Epoch: 27 November)

Event Time Altitude Azimuth Distance (km) Brightness Sun altitude
Rises 00:28:26 0° 284° (WNW) 2,803 - -47.7°
Reaches altitude 10° 00:30:58 10° 271° (W) 1,936 - -47.4°
Maximum altitude 00:34:34 24° 217° (SW) 1,274 - -47.0°
Drops below altitude 10° 00:38:19 10° 163° (SSE) 2,021 - -46.6°
Sets 00:41:01 0° 150° (SSE) 2,956 - -46.3°
